CZ-6A DEB, 54402

Orbit data source: Space-Track

CZ-6A DEB, 54402 is space debris in SSO originally from a launch on Fri, 11 Nov 2022 UTC launched from the Taiyaun Space Center, China (TSC). Debris objects in space refer to the collection of defunct objects orbiting the Earth. Examples of debris include non-operational satellites, rocket bodies, and fragments generated from explosions, collisions, or faulty payload assembly.

Loading next visibility...
Identifier
54402, 2022-151EA
Orbit
SSO
Country
Flag of CNCN / PRC
Related business
Manufacturer
SAST
Mission
Spacecraft
Bus & Motor
Unknown
Mass
Unknown
Launch date (UTC)
2022-11-11 (4 years ago)
Launch vehicle
Unknown
Launch site
Taiyaun Space Center, China (TSC)
Object type
Payload
Rocket body
Debris
Shape & HBR
Unknown shape, 0.1 m
Radar Cross Section
Medium (>0.1 m² and <1 m²)

Expand to show TLE details & history
Last TLE update: 2 days ago

TLE from 2 days ago
0 CZ-6A DEB
1 54402U 22151EA  26171.34521402  .00001271  00000-0  66096-3 0  9995
2 54402  98.7155 141.5156 0141648 255.2329 103.3111 14.11395893184868
Epoch: 2026-06-20T08:17Z
TLE epoch observation values (Epoch: 2026-06-20T08:17:06.491Z)
Latitude
-0.00003°
Longitude
108.67739°
Altitude
882.462 km
Speed
7.398 km/s
True Right ascension
09h 26m 03s
True Declination
0° 00' 00"
Sunlit
Object was in daylight at epoch
Visualization orbit readout
Latitude
Unknown
Longitude
Unknown
Altitude
Unknown
Speed
Unknown
Apparent Right ascension
Unknown
Apparent Declination
Unknown
Sunlit
N/A
Visualization observer readout
Local Sidereal Time
21:29:36
Azimuth
Unknown
Elevation
Unknown
Doppler factor
Unknown
Orbital elements
Apogee altitude
954.179 km
Perigee altitude
749.358 km
Semi-major axis
7,229.905 km
Eccentricity
0.01416
Inclination
98.7155°
RAAN
141.5156°
Arg. of periapsis
255.2329°
True anomaly
104.88405°
Mean anomaly
103.3111°
Eccentric anomaly
104.09824°
Mean motion
3.53057 °/min
Orbital period
101.97 mins
BSTAR
0.00066096
Loading maneuver chart data...
Computing Atmospheric mass density...
Loading historical data...
Loading historical data...
Loading historical data...
Loading historical data...
Loading historical data...
Loading historical data...
Loading historical data...

Documentation

Showing up to 5 results
|